Location: Homewood
(41.1836°S, 175.9581°E)
Time: 03:04:04
(UTC+00:00)

SL-16 R/B - Pass Details

Date: 18 April 2024
Orbit: 985 x 1006 km, 99.7° (Epoch: 22 May)

Event Time Altitude Azimuth Distance (km) Brightness Sun altitude
Rises 16:25:19 0° 170° (S) 3,734 5.8 -27.9°
Reaches altitude 10° 16:27:51 10° 173° (S) 2,778 5.0 -27.5°
Enters shadow 16:33:33 56° 235° (SW) 1,174 2.6 -26.4°
